SCP
0 0 0 1 1 1 1 1 0 0 1 1 1 1 0 0 0 0 0 0 0 0 0 0 0 0 0 0 0 0 0 0 0 0 0 0 0 0 1 1 1 1 0
0 0 0 1 1 1 1 1 1 1 1 1 1 1 1 0 0 0 0 0 0 0 0 0 0 0 0 0 0 0 0 0 0 0 0 0 0 0 0 1 1 0 0
0 0 0 0 0 1 1 1 1 1 1 1 1 1 1 0 0 0 0 0 0 0 0 0 0 0 0 0 0 0 0 0 0 0 0 1 0 0 0 0 0 0 0
0 0 0 0 0 1 1 1 1 1 1 1 1 1 1 0 0 0 0 0 0 0 0 0 0 0 0 0 0 0 0 0 0 0 1 1 0 0 0 0 0 0 0
0 0 0 0 0 1 1 1 1 1 1 1 1 1 1 1 0 0 0 0 0 0 0 0 0 0 0 0 0 0 0 0 0 1 1 1 0 0 0 0 0 0 0
0 0 0 0 0 1 1 1 1 1 1 1 2 2 1 1 0 0 0 0 0 0 0 0 0 0 0 0 0 0 0 0 0 1 1 1 1 0 0 0 0 0 0
1 1 1 1 1 1 1 1 1 1 1 1 2 2 1 1 0 0 0 0 0 0 0 0 0 0 0 0 0 0 0 1 1 1 1 1 1 0 0 0 0 0 0
1 1 1 1 1 1 1 1 1 1 1 1 2 2 1 1 0 0 0 0 0 0 0 0 0 0 0 0 0 0 0 1 1 1 1 1 1 1 1 0 0 0 0
1 1 1 1 1 1 1 1 1 1 1 2 2 2 1 1 0 0 0 0 0 0 0 0 0 0 0 0 0 0 0 0 1 1 1 1 1 1 1 1 0 0 0
1 1 1 1 1 1 1 1 1 1 1 1 2 2 1 1 0 0 0 0 0 0 0 0 0 0 0 0 0 0 0 1 1 1 1 1 1 1 1 1 1 1 0
0 1 1 1 1 1 1 1 1 1 1 1 2 2 1 1 0 0 0 0 0 0 0 0 0 0 0 1 1 1 1 1 1 1 1 1 1 1 1 1 1 1 1
0 0 1 1 1 1 1 1 1 1 1 1 1 2 1 1 1 0 0 0 0 0 0 0 0 0 0 1 1 1 1 1 1 1 1 1 1 1 1 0 0 0 1
0 0 0 1 1 1 1 1 1 1 1 1 1 2 2 1 1 0 0 0 0 0 0 0 0 0 0 0 0 0 0 0 0 0 0 1 1 1 1 0 0 0 0
0 0 0 1 1 1 1 1 1 1 1 1 1 2 2 1 1 0 0 0 0 0 0 0 0 0 0 0 0 0 0 0 0 0 0 0 0 0 0 0 0 0 0
0 0 0 0 1 1 1 1 1 1 1 1 1 2 2 2 1 1 0 0 0 0 0 0 0 0 0 0 0 0 0 0 0 0 0 0 0 0 0 0 0 0 0
0 0 0 0 0 1 1 1 1 1 1 1 1 2 2 2 1 1 1 0 0 0 0 0 0 0 0 0 0 0 0 0 0 0 0 0 0 0 0 0 0 0 0
0 0 0 0 0 0 1 1 1 1 1 1 1 1 2 2 2 1 1 1 0 0 0 0 0 0 0 0 0 0 0 0 0 0 0 0 0 0 0 0 0 0 0
0 0 0 0 0 1 2 2 2 1 1 1 1 1 2 2 2 2 1 1 1 0 0 0 0 0 0 0 0 0 0 0 0 0 0 0 0 0 0 0 0 0 0
0 0 0 0 0 1 2 3 2 1 1 1 1 1 2 2 2 2 1 1 1 0 0 0 0 0 0 0 0 0 0 0 0 0 1 0 0 0 0 0 0 0 0
0 1 1 1 1 2 3 3 2 1 1 1 1 2 2 2 2 2 2 1 1 1 0 0 0 0 0 0 0 0 0 0 0 1 1 0 0 0 0 0 0 0 0
0 1 2 2 2 3 4 3 2 1 1 1 1 2 3 3 3 2 2 2 1 1 1 1 0 0 0 0 0 0 0 0 0 1 1 1 0 0 0 0 0 0 0
1 1 2 2 3 4 4 3 2 1 1 1 1 2 3 3 3 3 3 2 1 1 1 1 1 0 0 0 0 0 0 0 0 1 1 1 0 0 0 0 0 0 0
1 2 2 2 3 3 3 2 1 1 2 2 2 2 2 3 3 3 3 2 2 1 1 1 1 0 0 0 0 0 0 0 0 0 0 0 0 0 0 0 0 0 0
1 1 2 2 2 2 2 1 1 1 2 2 2 2 2 3 3 3 3 2 2 1 1 1 1 1 1 0 0 0 0 0 0 0 0 0 0 0 0 0 0 0 0
1 1 1 1 1 1 1 1 1 1 2 2 2 3 3 3 3 3 3 2 2 1 1 1 1 1 1 0 0 0 0 0 0 0 0 0 0 0 0 0 0 0 0
1 1 1 1 1 1 1 1 1 1 1 2 2 3 3 3 3 3 3 2 1 1 1 1 1 1 1 0 0 0 0 0 0 0 0 0 0 0 0 0 0 0 0
Wind_Speed
6 6 6 6 6 6 5 4 4 4 4 3 3 3 2 1 2 2 2 2 1 1 2 1 2 2 2 2 3 4 5 3 3 3 4 5 6 5 5 5 5 7 7
7 7 6 6 7 7 6 5 4 4 4 2 2 2 2 2 1 1 1 2 2 1 1 2 2 2 2 3 3 3 2 2 1 1 1 2 3 4 4 4 5 5 5
8 8 8 7 7 7 6 5 5 5 4 4 3 3 3 2 2 2 1 1 2 2 0 1 2 2 3 2 2 2 2 2 1 1 1 0 1 3 3 5 4 5 4
8 8 8 8 8 7 6 6 6 5 5 5 4 4 3 3 2 2 2 2 2 2 1 0 1 2 2 2 2 2 2 2 1 1 0 1 1 1 2 3 4 4 5
7 8 8 8 8 7 7 6 6 6 6 5 5 4 3 2 2 2 3 2 2 2 1 1 1 2 1 2 2 1 1 1 1 1 1 1 1 1 1 2 2 3 3
7 7 7 6 6 6 6 6 6 6 5 5 6 5 4 4 4 3 3 2 2 2 2 1 1 1 1 1 1 1 1 1 0 1 1 1 1 1 1 1 2 2 3
7 7 7 6 6 6 7 7 7 6 6 6 6 5 5 5 4 4 3 2 2 2 2 1 1 1 1 1 1 1 1 1 0 0 0 0 1 1 1 1 2 2 3
6 6 7 6 6 7 7 8 8 7 7 6 5 5 5 3 3 3 3 2 2 2 2 1 1 2 2 2 1 1 1 1 1 1 0 0 0 1 1 1 2 2 3
5 6 6 6 6 7 7 7 8 7 7 7 6 5 5 4 4 4 3 2 2 2 2 2 2 2 2 2 2 1 1 1 1 1 1 1 1 1 1 1 2 2 2
4 4 5 6 6 6 6 7 7 8 7 7 6 4 5 5 4 4 4 4 3 3 3 3 3 3 3 3 2 1 1 2 2 1 1 1 1 1 1 1 1 1 1
2 3 3 4 5 5 5 6 7 7 7 8 7 7 6 5 5 4 4 4 4 4 4 3 3 3 3 3 3 2 2 2 2 2 2 2 2 2 2 1 1 1 1
2 2 2 3 4 4 5 6 6 7 7 7 8 7 6 6 6 5 5 5 4 4 4 4 4 3 3 2 2 2 2 2 2 2 2 2 2 2 1 1 2 1 1
1 2 1 2 3 4 4 5 6 6 7 7 8 8 8 7 6 6 5 5 5 4 4 4 4 3 3 3 3 3 3 2 2 2 2 2 2 2 2 1 1 2 2
2 1 1 2 3 3 4 4 5 6 6 7 7 8 8 7 6 6 6 5 5 5 5 5 4 4 4 4 4 3 3 2 2 2 2 2 2 2 3 2 2 2 2
2 2 2 2 2 3 4 4 5 5 6 7 8 7 7 7 6 6 6 5 5 5 4 4 4 4 4 3 3 3 3 3 3 3 2 2 2 2 1 0 1 2 2
2 2 2 3 3 3 3 4 5 5 6 7 7 6 6 6 6 6 6 6 5 5 5 5 5 5 3 3 2 3 4 4 4 3 3 3 4 4 3 1 1 1 1
3 3 3 3 3 3 4 4 5 5 6 6 6 6 7 6 6 6 6 6 6 6 6 6 5 5 4 5 6 5 4 4 4 4 4 3 3 4 4 5 5 3 1
4 4 3 3 3 3 3 4 5 6 7 7 6 7 7 7 6 6 6 6 6 5 5 5 5 4 4 6 7 7 6 4 5 4 4 4 5 4 4 3 4 3 3
4 3 3 4 3 3 3 4 4 5 6 7 7 7 7 7 7 7 7 6 6 5 5 5 5 5 5 7 7 7 5 4 4 4 4 4 4 4 4 4 4 4 3
3 3 3 4 3 2 3 4 5 5 6 6 6 6 7 8 8 8 7 6 5 5 5 5 6 6 6 7 9 9 4 5 4 4 4 4 4 5 6 6 5 4 4
3 3 3 3 2 2 3 4 4 4 5 5 5 5 7 7 7 7 6 6 6 6 6 6 6 6 5 7 9 8 5 5 4 4 4 4 6 6 6 6 5 3 3
3 3 2 2 2 3 4 4 3 3 3 4 5 5 6 6 6 6 6 6 6 6 6 6 5 4 5 5 7 8 6 5 5 4 4 3 7 7 6 5 3 3 4
4 3 3 3 3 3 4 4 3 2 3 4 5 5 5 5 6 6 6 6 6 5 5 5 5 4 4 4 7 8 8 6 5 3 2 3 5 6 5 5 5 6 4
4 3 4 4 3 3 4 3 2 3 4 4 5 5 5 5 5 5 5 5 6 6 6 5 5 5 4 4 5 5 6 6 5 4 4 5 5 5 4 5 6 5 4
4 4 4 4 4 3 4 3 3 4 4 4 4 4 4 4 5 5 4 5 6 5 6 5 5 5 5 5 5 5 5 5 4 4 4 4 4 4 4 4 4 4 4
4 4 4 4 4 3 3 3 3 4 4 4 4 4 3 3 4 4 3 2 3 3 5 5 5 5 4 5 7 7 5 4 5 4 4 4 4 5 5 4 4 4 4
Wind_Direction
177 173 176 175 174 171 172 160 166 165 168 163 161 154 142 128 99 81 70 70 67 82 96 120 122 123 127 128 125 118 116 113 111 111 104 93 76 68 63 53 57 63 57
182 178 181 184 185 178 173 169 176 173 173 169 160 148 126 129 102 93 75 69 77 84 127 165 144 141 133 143 139 141 145 129 156 175 157 139 117 79 62 64 58 56 58
196 186 187 191 190 189 180 182 186 178 175 168 158 146 141 158 160 148 114 69 66 73 62 145 142 151 162 157 171 173 181 178 183 277 305 298 95 114 94 71 67 58 55
202 194 189 193 193 192 184 190 187 186 179 176 177 173 174 170 160 143 131 133 106 98 82 150 159 167 163 163 187 205 217 222 213 164 340 9 78 186 135 114 84 66 55
200 194 192 196 197 190 187 192 187 186 181 186 180 194 186 159 141 133 140 147 121 111 112 134 159 164 165 166 177 198 230 240 271 250 171 138 149 222 176 134 120 100 73
195 193 185 185 190 188 187 191 191 185 184 189 191 197 181 174 159 154 150 152 136 128 115 111 155 161 161 168 175 194 184 240 284 281 230 210 208 191 176 160 155 126 101
188 187 183 182 187 189 191 190 189 185 184 193 197 191 185 189 179 168 168 177 161 150 130 141 152 141 152 167 170 168 144 154 181 277 319 289 300 226 195 171 155 147 133
183 188 191 189 192 192 192 192 190 189 184 189 194 194 180 189 175 173 176 185 168 149 141 156 128 121 133 144 140 149 127 121 120 78 79 157 111 149 164 179 172 173 155
181 189 191 191 191 191 193 195 192 191 188 188 186 191 186 182 179 183 177 177 174 152 161 164 145 132 137 137 131 132 125 118 115 121 123 121 115 140 159 183 223 242 188
177 187 194 193 190 192 196 195 194 193 192 189 184 179 187 185 188 185 180 179 172 165 166 167 152 143 138 144 132 124 99 116 97 73 115 110 116 112 141 181 224 267 263
167 180 194 191 189 188 190 193 193 195 193 191 186 184 185 186 186 187 180 180 176 177 176 171 168 154 147 150 152 152 136 133 133 136 119 114 116 138 137 147 158 162 160
147 151 166 180 187 190 197 198 195 196 196 194 191 188 182 183 189 189 184 185 181 183 186 180 178 167 162 162 163 159 164 165 152 137 136 130 124 134 143 155 153 142 164
151 142 151 179 187 196 204 206 202 200 197 194 194 190 189 188 190 191 188 189 188 185 190 190 187 187 180 172 180 185 183 180 178 165 157 152 153 155 136 161 158 145 145
174 167 182 199 204 206 208 208 208 202 199 195 195 195 195 192 190 191 190 193 190 191 194 196 192 194 196 194 192 190 187 186 176 173 173 171 170 169 148 156 157 154 154
207 212 222 221 218 216 213 212 212 202 197 196 198 198 195 190 191 191 190 191 193 201 194 199 197 196 204 207 202 195 192 188 178 183 182 151 90 50 68 103 158 167 177
229 237 242 237 226 219 216 215 211 203 198 200 198 191 191 188 189 194 195 189 193 201 194 201 202 199 205 168 219 239 198 199 192 189 184 163 169 152 149 115 25 343 234
250 249 252 251 244 231 217 214 213 204 201 200 194 190 192 189 192 194 194 192 197 201 202 206 206 208 189 173 195 227 230 216 207 200 193 179 168 185 180 165 173 185 252
260 261 262 257 257 245 226 214 209 205 203 199 193 191 194 191 195 199 197 200 201 198 208 211 208 208 188 180 190 202 225 222 214 211 210 203 197 197 206 197 195 200 195
268 269 268 260 249 236 225 210 206 206 205 203 199 193 193 193 195 199 199 202 201 199 204 205 206 207 194 186 193 202 214 220 217 212 214 217 211 162 192 211 211 215 205
268 269 267 254 236 222 211 206 204 206 208 207 206 197 195 196 199 201 200 200 201 204 204 205 211 212 207 182 194 211 212 215 215 211 208 212 220 175 193 215 217 222 224
267 262 256 248 235 220 212 215 212 217 216 209 205 199 197 198 201 200 198 197 198 202 207 208 213 215 210 184 192 208 224 220 218 214 212 196 181 191 205 231 235 234 247
259 250 245 248 235 221 218 219 223 226 217 201 201 201 201 197 194 193 196 199 197 202 207 210 210 212 202 200 193 202 225 248 229 227 221 188 171 190 208 223 211 204 228
252 246 241 241 237 227 226 227 220 219 209 197 199 201 200 198 195 192 194 197 198 206 208 208 210 208 204 191 193 199 208 223 234 227 201 172 173 192 206 205 201 209 220
246 242 238 234 230 223 227 232 216 215 210 201 199 197 197 196 196 198 200 201 202 208 211 211 212 208 201 201 195 196 199 200 216 212 177 176 186 208 211 199 203 215 219
244 242 242 241 238 228 222 220 220 216 210 201 196 198 199 195 198 199 208 213 214 217 219 217 212 211 210 202 197 201 205 204 201 198 191 191 194 205 208 210 211 209 206
245 240 241 240 232 225 220 214 221 222 214 204 198 197 197 195 198 198 198 213 247 220 228 240 235 223 216 181 187 201 203 187 177 194 205 206 211 216 217 214 212 212 213